Regional Weather Roundup
Issued by NWS

Home | Current Version | Previous Version | Graphics & Text | Print | Product List | Glossary On
Versions: 1 2 3 4 5 6 7 8 9 10 11 12 13 14 15 16 17 18 19 20 21 22 23 24 25 26 27 28 29 30 31 32 33 34 35 36 37 38 39 40 41 42 43 44 45 46 47 48 49 50
000
ASUS45 KBOI 100310
RWRID

IDAHO REGIONAL WEATHER ROUNDUP
NATIONAL WEATHER SERVICE BOISE ID
800 PM MST TUE FEB 09 2016

NOTE: "FAIR" INDICATES FEW OR NO CLOUDS BELOW 12000 FEET
WITH NO SIGNIFICANT WEATHER AND/OR OBSTRUCTIONS TO VISIBILITY

IDZ012-014-100400-
SOUTHWEST IDAHO


CITY           SKY/WX    TMP DP  RH WIND       PRES   REMARKS
BOISE          CLEAR     34  30  85 CALM      30.45R
CALDWELL       CLEAR     30  28  92 NW3       30.47S
MOUNTAIN HOME  CLEAR     32  29  87 CALM      30.44R
$$

IDZ016-017-100400-
SOUTHCENTRAL IDAHO


CITY           SKY/WX    TMP DP  RH WIND       PRES   REMARKS
BURLEY         CLEAR     30  26  85 NE10      30.40F WCI  21
JEROME         CLEAR     27  23  85 NE24      30.39F WCI  12
TWIN FALLS     CLEAR     30  28  92 E8        30.40F WCI  22
$$

IDZ019>023-100400-
SOUTHEAST IDAHO


CITY           SKY/WX    TMP DP  RH WIND       PRES   REMARKS
IDAHO FALLS    FOG       14  11  87 N8        30.47F VSB 1/2 WCI   3
POCATELLO      CLOUDY    22  20  92 N5        30.47F WCI  16
REXBURG        CLOUDY    16  14  92 NE3       30.47F
$$

IDZ006-010-011-018-031-032-100400-
CENTRAL IDAHO MOUNTAINS


CITY           SKY/WX    TMP DP  RH WIND       PRES   REMARKS
MCCALL         PTCLDY    26  24  92 NE3       30.35R FOG
HAILEY         CLEAR     27  23  86 NW7       30.42F WCI  19
STANLEY          N/A     21  17  84 SE5       30.40F WCI  15
SALMON         CLOUDY    16  12  86 SE3       30.45F
CHALLIS        CLEAR     13   9  84 CALM      30.42F
$$

IDZ002-004-006-007-026-100400-
NORTHERN IDAHO


CITY           SKY/WX    TMP DP  RH WIND       PRES   REMARKS
LEWISTON       CLEAR     51  34  52 S14       30.24R
LOWELL           N/A     38  36  92 NW5       30.30R WCI  34
COEUR D`ALENE  CLEAR     36  28  75 MISG      30.23S
MULLAN PASS    CLEAR     42  29  59 S8        30.26F
$$



USA.gov is the U.S. government's official web portal to all federal, state and local government web resources and services.